If you wish to contribute or participate in the discussions about articles you are invited to join SKYbrary as a registered user

 Actions

Abu Musa Airport

From SKYbrary Wiki

OIBA
Airport
ICAO: OIBA – IATA: AEU
Summary
Name Abu Musa Airport
Region Asia and Pacific
Territory Iran IR.gif
Location Abu Musa Island, Hormozgan
Serving Abu Musa
Elevation 7.01 m <br />23 ft7.01 m <br />
Coordinates 25° 52' 33.42" N, 55° 1' 57.84" E
Runways
Designator Length Width Surface ROPS
8/26 2986 m9,796.588 ft <br /> 45 m147.638 ft <br /> ASP /


METAR
Observation OIBA 171100Z 26014KT CAVOK 28/18 Q1010
Station Abumusa Island / Abumusa
Date/Time 17 April 2021 11:00:00
Wind direction 260°
Wind speed 14 kts
Lowest cloud amount clouds and visibility OK
Temperature 28°C
Dew point 18°C
Humidity 54%
QNH 1010 hPa
Weather condition n/a

Abu Musa Airport or Abumusa Airport is an airport serving Abu Musa Island, in the Hormozgan Province in Iran.

Climatology

Hot desert climate (Köppen climate classification BWh).

Maps

Terrain

Loading map...

Airport Layout

Loading map...


Accidents & Serious Incidents at or in vicinity of OIBA

None on SKYbrary